1273276827031,0.537087
1273276887031,0.538644
1273276947031,0.538430
1273277007031,0.537626
1273277067031,0.534260
1273277127031,0.541539
1273277187031,0.537377
1273277247031,0.534154
1273277307031,0.543948
1273277367031,0.539273
1273277427031,0.535741
1273277487031,0.536208
1273277547031,0.535819
1273277607031,0.531917
1273277667031,0.539259
1273277727031,0.544242
1273277787031,0.536514
1273277847031,0.535889
1273277907031,0.539358
1273277967031,0.531403
1273278027031,0.539226
1273278087031,0.535030
1273278147031,0.535273
1273278207031,0.534244
1273278267031,0.536079
1273278327031,0.531155
1273278387031,0.535792
1273278447031,0.532790
1273278507031,0.535540
1273278567031,0.537547
1273278627031,0.534182
1273278687031,0.539505
1273278747031,0.541529
1273278807031,0.537869
1273278867031,0.536373
1273278927031,0.532267
1273278987031,0.541550
1273279047031,0.535847
1273279107031,0.533378
1273279167031,0.541603
1273279227031,0.534730
1273279287031,0.537725
1273279347031,0.536773
1273279407031,0.528694
1273279467031,0.534351
1273279527031,0.536420
1273279587031,0.529143
1273279647031,0.533264
1273279707031,0.536140
1273279767031,0.540064
1273279827031,0.533257
1273279887031,0.541276
1273279947031,0.539605
1273280007031,0.534349
1273280067031,0.542284
1273280127031,0.532328
1273280187031,0.545929
1273280247031,0.542855
1273280307031,0.539215
1273280367031,0.544152
1273280427041,0.546496
1273280487041,0.544460
1273280547041,0.546753
1273280607041,0.541563
1273280667041,0.550166
1273280727041,0.544962
1273280787041,0.550205
1273280847041,0.548009
1273280907041,0.548485
1273280967041,0.548971
1273281027041,0.550967
1273281087041,0.548281
1273281147041,0.555088
1273281207041,0.551985
1273281267041,0.547896
1273281327041,0.554700
1273281387041,0.544788
1273281447041,0.542119
1273281507041,0.546217
1273281567041,0.541849
1273281627041,0.546199
1273281687041,0.539516
1273281747041,0.549094
1273281807041,0.534897
1273281867041,0.543861
1273281927041,0.543440
1273281987041,0.540700
1273282047041,0.545675
1273282107041,0.543449
1273282167041,0.545085
1273282227041,0.545734
1273282287041,0.549316
1273282347041,0.545122
1273282407041,0.544538
1273282467041,0.542381
1273282527041,0.545437
1273282587041,0.545695
1273282647041,0.549035
1273282707041,0.556944
1273282767041,0.558894
1273282827041,0.564893
1273282887041,0.565895
1273282947041,0.565571
1273283007041,0.565189
1273283067041,0.558520
1273283127041,0.565722
1273283187041,0.560435
1273283247041,0.557678
1273283307041,0.559136
1273283367041,0.567812
1273283427041,0.556348
1273283487041,0.558684
1273283547041,0.549525
1273283607041,0.555080
1273283667041,0.552096
1273283727041,0.547958
1273283787041,0.547394
1273283847041,0.546988
1273283907041,0.548051
1273283967041,0.553333
1273284027051,0.549754
1273284087051,0.548490
1273284147051,0.549988
1273284207051,0.550195
1273284267051,0.556529
1273284327051,0.551311
1273284387051,0.553414
1273284447051,0.548175
1273284507051,0.551291
1273284567051,0.559629
1273284627051,0.554421
1273284687051,0.554335
1273284747051,0.552804
1273284807051,0.550024
1273284867051,0.547800
1273284927051,0.552914
1273284987051,0.548148
1273285047051,0.548324
1273285107051,0.552747
1273285167051,0.555702
1273285227051,0.547208
1273285287051,0.546653
1273285347051,0.539529
1273285407051,0.550759
1273285467051,0.547427
1273285527051,0.545848
1273285587051,0.545558
1273285647051,0.550424
1273285707051,0.544305
1273285767051,0.551145
1273285827051,0.547072
1273285887051,0.548735
1273285947051,0.542207
1273286007051,0.542718
1273286067051,0.539631
1273286127051,0.541187
1273286187051,0.547390
1273286247051,0.535774
1273286307051,0.537431
1273286367051,0.536482
1273286427051,0.541808
1273286487051,0.542310
1273286547051,0.540927
1273286607051,0.541819
1273286667051,0.541922
1273286727051,0.538802
1273286787051,0.536307
1273286847051,0.542197
1273286907051,0.546908
1273286967051,0.542084
1273287027051,0.544225
1273287087051,0.536075
1273287147051,0.538102
1273287207051,0.535803
1273287267051,0.536338
1273287327051,0.540240
1273287387051,0.535892
1273287447051,0.540084
1273287507051,0.541361
1273287567051,0.537423
1273287627060,0.536964
1273287687060,0.535068
1273287747060,0.536714
1273287807060,0.539233
1273287867060,0.541556
1273287927060,0.532201
1273287987060,0.535688
1273288047060,0.536524
1273288107060,0.542197
1273288167060,0.537264
1273288227060,0.540479
1273288287060,0.538018
1273288347060,0.537226
1273288407060,0.539044
1273288467060,0.538518
1273288527060,0.540938
1273288587060,0.545066
1273288647060,0.545947
1273288707060,0.534966
1273288767060,0.540880
1273288827060,0.543200
1273288887060,0.541109
1273288947060,0.544419
1273289007060,0.551649
1273289067060,0.554932
1273289127060,0.554161
1273289187060,0.552475
1273289247060,0.555652
1273289307060,0.552714
1273289367060,0.548658
1273289427060,0.544189
1273289487060,0.540909
1273289547060,0.543280
1273289607060,0.543733
1273289667060,0.548830
1273289727060,0.547014
1273289787060,0.546647
1273289847060,0.545119
1273289907060,0.541604
1273289967060,0.539210
1273290027060,0.540496
1273290087060,0.536516
1273290147060,0.541178
1273290207060,0.538438
1273290267060,0.533508
1273290327060,0.535470
1273290387060,0.533711
1273290447060,0.534747
1273290507060,0.537448
1273290567060,0.541144
1273290627060,0.531621
1273290687060,0.531549
1273290747060,0.534840
1273290807060,0.539601
1273290867060,0.535221
1273290927060,0.535953
1273290987060,0.538301
1273291047060,0.532470
1273291107060,0.534856
1273291167060,0.533772
1273291227069,0.531574
1273291287069,0.539061
1273291347069,0.534911
1273291407069,0.536497
1273291467069,0.533392
1273291527069,0.535677
1273291587069,0.536220
1273291647069,0.534079
1273291707069,0.534235
1273291767069,0.545098
1273291827069,0.536989
1273291887069,0.534654
1273291947069,0.531254
1273292007069,0.540346
1273292067069,0.534062
1273292127069,0.536562
1273292187069,0.535491
1273292247069,0.535613
1273292307069,0.539313
1273292367069,0.538734
1273292427069,0.535904
1273292487069,0.537211
1273292547069,0.536311
1273292607069,0.539248
1273292667069,0.528632
1273292727069,0.539738
1273292787069,0.535467
1273292847069,0.536209
1273292907069,0.538420
1273292967069,0.534674
1273293027069,0.537022
1273293087069,0.536106
1273293147069,0.539789
1273293207069,0.540034
1273293267069,0.533615
1273293327069,0.536166
1273293387069,0.535909
1273293447069,0.534685
1273293507069,0.531730
1273293567069,0.532658
1273293627069,0.534407
1273293687069,0.534350
1273293747069,0.538719
1273293807069,0.528742
1273293867069,0.535475
1273293927069,0.530991
1273293987069,0.537543
1273294047069,0.536687
1273294107069,0.539896
1273294167069,0.534822
1273294227069,0.532224
1273294287069,0.535266
1273294347069,0.536828
1273294407069,0.537871
1273294467069,0.538291
1273294527069,0.551510
1273294587069,0.576488
1273294647069,0.642265
1273294707069,0.717487
1273294767069,0.765623
1273294827078,0.792444
1273294887078,0.816123
1273294947078,0.803419
1273295007078,0.766112
1273295067078,0.754877
1273295127078,0.727196
1273295187078,0.708551
1273295247078,0.697916
1273295307078,0.696535
1273295367078,0.682952
1273295427078,0.671789
1273295487078,0.673346
1273295547078,0.656772
1273295607078,0.636674
1273295667078,0.630654
1273295727078,0.621445
1273295787078,0.607643
1273295847078,0.607491
1273295907078,0.602219
1273295967078,0.591417
1273296027078,0.591596
1273296087078,0.585841
1273296147078,0.581431
1273296207078,0.583577
1273296267078,0.578970
1273296327078,0.582111
1273296387078,0.578618
1273296447078,0.581010
1273296507078,0.578745
1273296567078,0.571676
1273296627078,0.568354
1273296687078,0.571240
1273296747078,0.570949
1273296807078,0.567617
1273296867078,0.567836
1273296927078,0.561316
1273296987078,0.562154
1273297047078,0.557928
1273297107078,0.563901
1273297167078,0.550936
1273297227078,0.551756
1273297287078,0.554159
1273297347078,0.544543
1273297407078,0.552566
1273297467078,0.546847
1273297527078,0.546919
1273297587078,0.545470
1273297647078,0.547340
1273297707078,0.542353
1273297767078,0.540945
1273297827078,0.539890
1273297887078,0.535539
1273297947078,0.541629
1273298007078,0.541492
1273298067078,0.539741
1273298127078,0.544959
1273298187078,0.540034
1273298247078,0.540200
1273298307078,0.532920
1273298367078,0.538136
1273298427087,0.535677
1273298487087,0.534382
1273298547087,0.536865
1273298607087,0.538200
1273298667087,0.531872
1273298727087,0.535372
1273298787087,0.540849
1273298847087,0.536502
1273298907087,0.534390
1273298967087,0.537949
1273299027087,0.539644
1273299087087,0.530811
1273299147087,0.531370
1273299207087,0.526851
1273299267087,0.533720
1273299327087,0.533658
1273299387087,0.533648
1273299447087,0.529166
1273299507087,0.532423
1273299567087,0.535361
1273299627087,0.532792
1273299687087,0.531030
1273299747087,0.532492
1273299807087,0.536307
1273299867087,0.533442
1273299927087,0.532844
1273299987087,0.529861
1273300047087,0.534013
1273300107087,0.526132
1273300167087,0.530591
1273300227087,0.535565
1273300287087,0.531934
1273300347087,0.531772
1273300407087,0.532894
1273300467087,0.533610
1273300527087,0.528119
1273300587087,0.529972
1273300647087,0.528632
1273300707087,0.526554
1273300767087,0.529258
1273300827087,0.530187
1273300887087,0.528356
1273300947087,0.531723
1273301007087,0.528870
1273301067087,0.519953
1273301127087,0.525278
1273301187087,0.525207
1273301247087,0.528701
1273301307087,0.526383
1273301367087,0.527880
1273301427087,0.525959
1273301487087,0.531390
1273301547087,0.534874
1273301607087,0.530214
1273301667087,0.531670
1273301727087,0.534130
1273301787087,0.531416
1273301847087,0.530724
1273301907087,0.523462
1273301967087,0.532343
1273302027096,0.526759
1273302087096,0.531245
1273302147096,0.530787
1273302207096,0.531059
1273302267096,0.528722
1273302327096,0.526912
1273302387096,0.531869
1273302447096,0.531860
1273302507096,0.526509
1273302567096,0.530245
1273302627096,0.526032
1273302687096,0.525587
1273302747096,0.525456
1273302807096,0.529808
1273302867096,0.527447
1273302927096,0.526185
1273302987096,0.527756
1273303047096,0.535467
1273303107096,0.526193
1273303167096,0.525974
1273303227096,0.530376
1273303287096,0.529669
1273303347096,0.534884
1273303407096,0.533918
1273303467096,0.531908
1273303527096,0.533408
1273303587096,0.532714
1273303647096,0.532356
1273303707096,0.525595
1273303767096,0.521322
1273303827096,0.533832
1273303887096,0.532729
1273303947096,0.525115
1273304007096,0.524732
1273304067096,0.525372
1273304127096,0.525780
1273304187096,0.525558
1273304247096,0.529342
1273304307096,0.527750
1273304367096,0.522662
1273304427096,0.528991
1273304487096,0.528235
1273304547096,0.531517
1273304607096,0.524917
1273304667096,0.526102
1273304727096,0.522775
1273304787096,0.528563
1273304847096,0.526293
1273304907096,0.523972
1273304967096,0.529266
1273305027096,0.529708
1273305087096,0.526274
1273305147096,0.528968
1273305207096,0.525822
1273305267096,0.523466
1273305327096,0.531094
1273305387096,0.529802
1273305447096,0.525801
1273305507096,0.524969
1273305567096,0.524119
1273305627105,0.529379
1273305687105,0.525242
1273305747105,0.530406
1273305807105,0.529799
1273305867105,0.526675
1273305927105,0.527681
1273305987105,0.528897
1273306047105,0.529567
1273306107105,0.526051
1273306167105,0.528814
1273306227105,0.530546
1273306287105,0.532984
1273306347105,0.531049
1273306407105,0.527396
1273306467105,0.529430
1273306527105,0.528130
1273306587105,0.524726
1273306647105,0.528922
1273306707105,0.527937
1273306767105,0.527418
1273306827105,0.523701
1273306887105,0.529446
1273306947105,0.528871
1273307007105,0.526095
1273307067105,0.529878
1273307127105,0.522397
1273307187105,0.528579
1273307247105,0.525627
1273307307105,0.529888
1273307367105,0.529649
1273307427105,0.525849
1273307487105,0.528316
1273307547105,0.531552
1273307607105,0.526495
1273307667105,0.528824
1273307727105,0.528130
1273307787105,0.529018
1273307847105,0.535145
1273307907105,0.530880
1273307967105,0.529475
1273308027105,0.529694
1273308087105,0.533500
1273308147105,0.537650
1273308207105,0.528753
1273308267105,0.534554
1273308327105,0.531991
1273308387105,0.531121
1273308447105,0.534559
1273308507105,0.540344
1273308567105,0.535831
1273308627105,0.532625
1273308687105,0.533694
1273308747105,0.534472
1273308807105,0.536517
1273308867105,0.544416
1273308927105,0.537493
1273308987105,0.540513
1273309047105,0.536001
1273309107105,0.535432
1273309167105,0.536596
1273309227114,0.538433
1273309287114,0.538119
1273309347114,0.534674
1273309407114,0.537243
1273309467114,0.539427
1273309527114,0.538837
1273309587114,0.538731
1273309647114,0.533111
1273309707114,0.535053
1273309767114,0.533934
1273309827114,0.531526
1273309887114,0.534016
1273309947114,0.532601
1273310007114,0.530626
1273310067114,0.538428
1273310127114,0.532798
1273310187114,0.532616
1273310247114,0.530520
1273310307114,0.535279
1273310367114,0.537460
1273310427114,0.542972
1273310487114,0.535262
1273310547114,0.538958
1273310607114,0.533788
1273310667114,0.535495
1273310727114,0.544200
1273310787114,0.534080
1273310847114,0.532520
1273310907114,0.528412
1273310967114,0.532946
1273311027114,0.526943
1273311087114,0.532499
1273311147114,0.534783
1273311207114,0.535592
1273311267114,0.535375
1273311327114,0.533224
1273311387114,0.532242
1273311447114,0.527618
1273311507114,0.537068
1273311567114,0.530741
1273311627114,0.528645
1273311687114,0.528513
1273311747114,0.538336
1273311807114,0.531668
1273311867114,0.533516
1273311927114,0.537801
1273311987114,0.528102
1273312047114,0.528435
1273312107114,0.534757
1273312167114,0.528014
1273312227114,0.531717
1273312287114,0.529141
1273312347114,0.529748
1273312407114,0.535493
1273312467114,0.527425
1273312527114,0.527962
1273312587114,0.530071
1273312647114,0.524475
1273312707114,0.530162
1273312767114,0.524917
1273312827122,0.530004
1273312887122,0.533991
1273312947122,0.531952
1273313007122,0.531851
1273313067122,0.528196
1273313127122,0.530430
1273313187122,0.524190
1273313247122,0.534377
1273313307122,0.533271
1273313367122,0.529852
1273313427122,0.533597
1273313487122,0.538462
1273313547122,0.532087
1273313607122,0.530931
1273313667122,0.534990
1273313727122,0.537446
1273313787122,0.541115
1273313847122,0.548183
1273313907122,0.548634
1273313967122,0.552046
1273314027122,0.553285
1273314087122,0.545200
1273314147122,0.555415
1273314207122,0.546221
1273314267122,0.542508
1273314327122,0.543197
1273314387122,0.538204
1273314447122,0.536277
1273314507122,0.537822
1273314567122,0.536635
1273314627122,0.527498
1273314687122,0.531870
1273314747122,0.528170
1273314807122,0.532309
1273314867122,0.535260
1273314927122,0.531143
1273314987122,0.532377
1273315047122,0.533811
1273315107122,0.538997
1273315167122,0.530760
1273315227122,0.531269
1273315287122,0.531530
1273315347122,0.525702
1273315407122,0.532462
1273315467122,0.526349
1273315527122,0.528628
1273315587122,0.527639
1273315647122,0.535394
1273315707122,0.533198
1273315767122,0.530317
1273315827122,0.531714
1273315887122,0.531169
1273315947122,0.531307
1273316007122,0.529937
1273316067122,0.530660
1273316127122,0.529029
1273316187122,0.531606
1273316247122,0.533053
1273316307122,0.531774
1273316367122,0.527178
1273316427131,0.522456
1273316487131,0.535755
1273317027131,0.535714
1273317087131,0.535247
1273317147131,0.529561
1273317207131,0.535072
1273317267131,0.524398
1273317327131,0.532406
1273317387131,0.530064
1273317447131,0.525903
1273317507131,0.525698
1273317567131,0.531588
1273317627131,0.530481
1273317687131,0.535330
1273317747131,0.531261
1273317807131,0.525585
1273317867131,0.529672
1273317927131,0.529213
1273317987131,0.530165
1273318047131,0.527075
1273318107131,0.529759
1273318167131,0.527803
1273318227131,0.536342
1273318287131,0.522428
1273318347131,0.532542
1273318407131,0.525769
1273318467131,0.529145
1273318527131,0.529898
1273318587131,0.533119
1273318647131,0.521578
1273318707131,0.524784
1273318767131,0.532389
1273318827131,0.527426
1273318887131,0.529487
1273318947131,0.534950
1273319007131,0.539418
1273319067131,0.540908
1273319127131,0.556922
1273319187131,0.571347
1273319247131,0.576293
1273319307131,0.572270
1273319367131,0.577892
1273319427131,0.593063
1273319487131,0.610657
1273319547131,0.607441
1273319607131,0.603019
1273319667131,0.583932
1273319727131,0.580451
1273319787131,0.571923
1273319847131,0.560550
1273319907131,0.554801
1273319967131,0.543079
1273320027140,0.543888
1273320087140,0.544195
1273320147140,0.541731
1273320207140,0.543830
1273320267140,0.542314
1273320327140,0.543490
1273320387140,0.545746
1273320447140,0.549636
1273320507140,0.548672
1273320567140,0.543063
1273320627140,0.537803
1273320687140,0.542196
1273320747140,0.547706
1273320807140,0.540138
1273320867140,0.540469
1273320927140,0.539372
1273320987140,0.537699
1273321047140,0.537904
1273321107140,0.541149
1273321167140,0.541556
1273321227140,0.540587
1273321287140,0.540802
1273321347140,0.538459
1273321407140,0.539218
1273321467140,0.541406
1273321527140,0.541405
1273321587140,0.542230
1273321647140,0.537312
1273321707140,0.542811
1273321767140,0.539843
1273321827140,0.541062
1273321887140,0.537098
1273321947140,0.539274
1273322007140,0.545806
1273322067140,0.545996
1273322127140,0.542509
1273322187140,0.540473
1273322247140,0.545379
1273322307140,0.541756
1273322367140,0.541377
1273322427140,0.542471
1273322487140,0.544902
1273322547140,0.545647
1273322607140,0.545991
1273322667140,0.546351
1273322727140,0.548441
1273322787140,0.549778
1273322847140,0.554436
1273322907140,0.560996
1273322967140,0.554615
1273323027140,0.564829
1273323087140,0.559509
1273323147140,0.572171
1273323207140,0.558813
1273323267140,0.553407
1273323327140,0.559265
1273323387140,0.556868
1273323447140,0.557089
1273323507140,0.556701
1273323567140,0.557105
1273323627149,0.554176
1273323687149,0.559970
1273323747149,0.560331
1273323807149,0.563078
1273323867149,0.564445
1273323927149,0.563920
1273323987149,0.568475
1273324047149,0.569162
1273324107149,0.572914
1273324167149,0.570495
1273324227149,0.566066
1273324287149,0.568746
1273324347149,0.571153
1273324407149,0.571452
1273324467149,0.572507
1273324527149,0.570215
1273324587149,0.568523
1273324647149,0.574778
1273324707149,0.568261
1273324767149,0.568509
1273324827149,0.557533
1273324887149,0.561905
1273324947149,0.558697
1273325007149,0.554908
1273325067149,0.559431
1273325127149,0.557812
1273325187149,0.548750
1273325247149,0.555584
1273325307149,0.556438
1273325367149,0.551270
1273325427149,0.542415
1273325487149,0.550358
1273325547149,0.545785
1273325607149,0.547084
1273325667149,0.548812
1273325727149,0.543224
1273325787149,0.544740
1273325847149,0.542129
1273325907149,0.545381
1273325967149,0.542226
1273326027149,0.545299
1273326087149,0.540034
1273326147149,0.544897
1273326207149,0.540385
1273326267149,0.535494
1273326327149,0.538894
1273326387149,0.542523
1273326447149,0.539577
1273326507149,0.541143
1273326567149,0.540652
1273326627149,0.530941
1273326687149,0.537205
1273326747149,0.534379
1273326807149,0.539851
1273326867149,0.531856
1273326927149,0.535435
1273326987149,0.534866
1273327047149,0.530488
1273327107149,0.528481
1273327167149,0.524022
1273327227157,0.533415
1273327287157,0.536616
1273327347157,0.535456
1273327407157,0.535968
1273327467157,0.531116
1273327527157,0.533220
1273327587157,0.537314
1273327647157,0.525987
1273327707157,0.530518
1273327767157,0.527981
1273327827157,0.532528
1273327887157,0.535953
1273327947157,0.528395
1273328007157,0.531610
1273328067157,0.527666
1273328127157,0.536908
1273328187157,0.534941
1273328247157,0.532131
1273328307157,0.529254
1273328367157,0.528459
1273328427157,0.532557
1273328487157,0.532833
1273328547157,0.528177
1273328607157,0.534474
1273328667157,0.529461
1273328727157,0.529354
1273328787157,0.527744
1273328847157,0.533206
1273328907157,0.533072
1273328967157,0.531498
1273329027157,0.526340
1273329087157,0.536587
1273329147157,0.530662
1273329207157,0.533646
1273329267157,0.527632
1273329327157,0.530078
1273329387157,0.531788
1273329447157,0.528652
1273329507157,0.534897
1273329567157,0.524315
1273329627157,0.531680
1273329687157,0.528244
1273329747157,0.532276
1273329807157,0.528371
1273329867157,0.528116
1273329927157,0.527530
1273329987157,0.529735
1273330047157,0.533867
1273330107157,0.534173
1273330167157,0.527112
1273330227157,0.533073
1273330287157,0.533636
1273330347157,0.537763
1273330407157,0.533587
1273330467157,0.534284
1273330527157,0.533636
1273330587157,0.537879
1273330647157,0.530702
1273330707157,0.530166
1273330767157,0.529156
1273330827166,0.525987
1273330887166,0.532257
1273330947166,0.531262
1273331007166,0.534835
1273331067166,0.531250
1273331127166,0.527351
1273331187166,0.528422
1273331247166,0.520877
1273331307166,0.529897
1273331367166,0.530520
1273331427166,0.523790
1273331487166,0.524777
1273331547166,0.531127
1273331607166,0.532683
1273331667166,0.531016
1273331727166,0.529431
1273331787166,0.527708
1273331847166,0.530894
1273331907166,0.534427
1273331967166,0.524148
1273332027166,0.522131
1273332087166,0.522174
1273332147166,0.523292
1273332207166,0.526466
1273332267166,0.523551
1273332327166,0.523901
1273332387166,0.526456
1273332447166,0.526805
1273332507166,0.532749
1273332567166,0.529282
1273332627166,0.533993
1273332687166,0.525565
1273332747166,0.526066
1273332807166,0.523861
1273332867166,0.529547
1273332927166,0.524361
1273332987166,0.525084
1273333047166,0.530108
1273333107166,0.523376
1273333167166,0.525805
1273333227166,0.532574
1273333287166,0.520684
1273333347166,0.531669
1273333407166,0.524943
1273333467166,0.530085
1273333527166,0.527791
1273333587166,0.527625
1273333647166,0.530174
1273333707166,0.521934
1273333767166,0.528854
1273333827166,0.526521
1273333887166,0.525494
1273333947166,0.527181
1273334007166,0.532615
1273334067166,0.526628
1273334127166,0.524439
1273334187166,0.524228
1273334247166,0.528214
1273334307166,0.529198
1273334367166,0.524614
1273334427174,0.524529
1273334487174,0.528005
1273334547174,0.528479
1273334607174,0.530526
1273334667174,0.527938
1273334727174,0.528357
1273334787174,0.531913
1273334847174,0.524055
1273334907174,0.530588
1273334967174,0.531483
1273335027174,0.526574
1273335087174,0.523915
1273335147174,0.528646
1273335207174,0.527766
1273335267174,0.526463
1273335327174,0.524870
1273335387174,0.531073
1273335447174,0.527471
1273335507174,0.528687
1273335567174,0.528140
1273335627174,0.529743
1273335687174,0.530272
1273335747174,0.527462
1273335807174,0.527458
1273335867174,0.527492
1273335927174,0.523796
1273335987174,0.526201
1273336047174,0.527036
1273336107174,0.525269
1273336167174,0.527931
1273336227174,0.523467
1273336287174,0.528554
1273336347174,0.529512
1273336407174,0.526929
1273336467174,0.529623
1273336527174,0.524270
1273336587174,0.527063
1273336647174,0.533841
1273336707174,0.528986
1273336767174,0.532438
1273336827174,0.528986
1273336887174,0.530019
1273336947174,0.530846
1273337007174,0.528609
1273337067174,0.530183
1273337127174,0.529984
1273337187174,0.533441
1273337247174,0.529592
1273337307174,0.532291
1273337367174,0.527333
1273337427174,0.532101
1273337487174,0.535108
1273337547174,0.525759
1273337607174,0.534119
1273337667174,0.530392
1273337727174,0.531043
1273337787174,0.527175
1273337847174,0.527606
1273337907174,0.531796
1273337967174,0.531005
1273338027182,0.528275
1273338087182,0.529367
1273338147182,0.531556
1273338207182,0.527459
1273338267182,0.526832
1273338327182,0.529027
1273338387182,0.534893
1273338447182,0.527639
1273338507182,0.529012
1273338567182,0.528102
1273338627182,0.536583
1273338687182,0.531512
1273338747182,0.531503
1273338807182,0.535123
1273338867182,0.531017
1273338927182,0.528150
1273338987182,0.533267
1273339047182,0.533449
1273339107182,0.534665
1273339167182,0.527620
1273339227182,0.525561
1273339287182,0.528651
1273339347182,0.529088
1273339407182,0.531792
1273339467182,0.526888
1273339527182,0.533844
1273339587182,0.534310
1273339647182,0.532344
1273339707182,0.536403
1273339767182,0.526217
1273339827182,0.527701